Location: Bullfrog
(37.5121°N, 110.7330°W)
Time: 16:51:08
(UTC-06:00)

X-37B - Visible Passes

Search period start: 21 September 2021 00:00
Search period end: 01 October 2021 00:00
Orbit: 381 x 393 km, 45.0° (Epoch: 29 August)

Date Brightness Start Highest point End Pass type
(mag) Time Alt. Az. Time Alt. Az. Time Alt. Az.
21 Sep 0.6 05:59:47 30° SW 06:01:10 74° SSE 06:04:19 10° ENE visible
22 Sep 2.9 05:04:16 23° E 05:04:16 23° E 05:05:47 10° ENE visible
22 Sep 1.5 06:36:34 10° W 06:39:29 36° NNW 06:42:27 10° NE visible
23 Sep 0.7 05:40:58 58° NNW 05:41:02 58° NNW 05:44:08 10° NE visible
24 Sep 3.9 04:45:19 13° ENE 04:45:19 13° ENE 04:45:47 10° ENE visible
24 Sep 2.1 06:17:36 15° WNW 06:19:29 26° NNW 06:22:14 10° NE visible
25 Sep 2.3 05:21:55 28° NNE 05:21:55 28° NNE 05:23:55 10° NE visible
26 Sep 2.4 05:58:29 18° NW 05:59:33 21° N 06:02:05 10° NE visible
27 Sep 3.5 05:02:46 16° NE 05:02:46 16° NE 05:03:41 10° NE visible
27 Sep 2.6 06:35:46 10° NW 06:38:15 21° N 06:40:43 10° ENE visible
28 Sep 2.6 05:39:20 20° N 05:39:38 20° N 05:42:03 10° NE visible
29 Sep 2.5 06:15:56 12° NW 06:18:18 24° NNE 06:20:58 10° ENE visible
30 Sep 2.9 05:20:17 20° NNE 05:20:17 20° NNE 05:22:12 10° ENE visible
